Location: Krakow
(50.0830°N, 19.9170°E)
Time: 10:06:50
(UTC+01:00)

Transit 2A - Pass Details

Date: 11 February 2023
Orbit: 591 x 964 km, 66.7° (Epoch: 21 March)

Event Time Altitude Azimuth Distance (km) Brightness Sun altitude
Rises 23:11:34 0° 322° (NW) 3,495 9.9 -52.7°
Enters shadow 23:12:33 - 322° (NW) 3,131 9.6 -52.8°
Reaches altitude 10° 23:14:00 10° 322° (NW) 2,596 - -52.9°
Maximum altitude 23:20:08 83° 235° (SW) 960 - -53.1°
Drops below altitude 10° 23:26:31 10° 149° (SSE) 2,695 - -53.3°
Sets 23:29:05 0° 149° (SSE) 3,637 - -53.4°
